Volver al catálogo

FENGYUN 1C DEB

LostPO
NORAD 47008·DEBRIS·🇨🇳 China

Lanzado May 10, 1999 desde Taiyuan Satellite Launch Center

Loading…

Próximos Pases (próximas 24 horas)

TLE

ObsoletoSource: Space-Track

Época: Sep 11, 2022, 03:37 UTC

1 47008U 99025FAJ 22254.15126759  .00003263  00000-0  15163-2 0  9997
2 47008  98.0569  18.1738 0164720 328.5297  30.6104 14.14311394637384

Sigue FENGYUN 1C DEB en tiempo real con AllMySat

Download on the App Store